Wind_Speed
3 2 2 2 3 4 4 3 2 2 3 4 4 3 3 4 4 4 5 6 6 7 8 8 9 9 10 10 9 9 10 10 11 11 11 12 12 12 12 12 12 12 12
4 4 4 4 4 4 5 4 3 3 4 4 3 3 4 4 4 4 5 6 7 8 8 8 9 10 10 10 10 10 10 10 11 12 12 12 12 12 13 13 13 13 14
3 4 5 5 5 5 5 4 4 4 4 4 4 4 5 5 5 6 6 7 7 8 8 9 9 10 10 9 10 10 11 11 12 12 13 13 13 13 13 13 14 14 14
4 4 5 5 5 5 5 4 4 4 4 4 4 5 6 6 6 7 7 7 7 8 9 9 8 9 9 9 9 10 10 11 11 12 13 13 13 13 14 14 14 14 15
4 4 5 5 5 5 5 4 5 5 5 5 5 6 7 7 7 7 8 8 8 8 9 9 9 9 9 9 10 11 10 10 11 11 13 13 13 13 13 14 14 15 15
3 4 5 6 6 6 5 5 6 5 5 5 6 7 7 7 8 9 9 9 9 9 9 10 10 10 11 10 10 11 11 11 11 12 13 13 13 13 12 13 13 14 15
4 4 6 6 6 6 6 6 7 6 6 6 7 7 8 8 9 9 10 10 10 10 10 11 11 11 11 11 12 12 12 12 13 12 12 12 12 12 12 12 13 14 15
6 6 6 6 6 6 6 6 7 7 7 8 8 8 8 9 9 10 11 11 11 11 12 12 12 12 11 12 12 13 12 12 13 12 12 12 12 12 13 13 13 14 15
6 6 6 6 7 7 6 7 8 9 9 10 10 10 10 10 11 11 12 12 12 12 13 13 13 13 13 13 13 13 13 12 13 12 12 12 12 12 12 13 13 14 15
6 6 7 7 8 8 8 8 9 10 11 11 11 11 11 11 11 12 13 13 13 13 14 14 14 15 14 14 13 13 13 13 13 13 13 13 12 13 13 13 13 14 15
6 7 8 9 9 9 10 10 11 11 12 12 12 12 12 12 12 12 13 14 14 14 14 15 15 15 15 14 14 13 14 14 14 14 14 14 14 14 14 14 14 14 15
8 9 9 10 10 11 11 11 12 12 13 13 12 12 12 12 13 13 13 14 14 15 14 15 15 15 15 15 14 14 14 14 14 14 14 14 14 14 14 14 14 14 14
9 10 10 11 11 12 12 13 13 13 14 14 13 13 13 13 13 14 14 15 15 15 15 15 15 15 15 15 15 16 15 15 15 15 14 15 15 15 15 15 15 15 15
11 11 11 12 12 13 14 13 13 14 13 14 14 14 14 14 15 15 16 16 16 16 16 17 17 16 16 16 16 17 17 17 17 17 17 17 17 17 18 18 17 16 17
12 12 13 13 14 14 14 14 15 15 14 15 14 14 15 16 16 17 17 17 17 18 18 18 17 17 17 18 18 19 19 19 19 19 19 19 19 19 19 19 19 19 19
13 13 14 15 16 16 16 16 16 16 16 15 15 16 16 17 17 18 18 18 19 19 20 20 19 19 19 20 20 20 21 21 21 21 21 21 21 21 20 20 20 19 19
14 15 16 17 18 18 18 18 17 17 17 17 17 17 18 18 19 19 20 20 20 20 21 21 22 21 21 22 22 22 22 22 22 22 22 22 22 21 20 20 20 20 20
15 17 17 19 19 19 19 19 18 18 18 19 19 19 19 20 20 21 21 21 22 22 22 22 22 23 23 23 24 23 24 24 24 24 23 23 23 22 22 21 21 21 21
17 18 19 19 19 19 20 19 19 20 20 20 20 20 21 21 22 22 22 22 23 23 23 24 24 24 24 25 25 24 25 24 24 25 25 24 24 24 24 23 23 23 23
18 19 19 20 20 20 21 21 21 21 21 21 22 22 22 23 23 23 23 24 24 25 25 25 25 25 25 25 25 26 25 25 25 25 25 25 25 25 25 25 24 24 24
20 20 21 21 22 22 22 22 22 22 22 23 24 24 24 24 24 24 24 25 25 25 25 25 25 25 25 26 26 27 26 26 26 26 26 25 25 26 26 26 26 26 26
21 21 22 22 23 23 23 24 24 24 24 24 25 26 26 26 25 25 25 25 25 26 25 25 25 26 26 26 27 27 27 27 26 26 26 26 26 26 26 26 27 28 28
22 22 23 23 24 24 24 24 24 24 24 25 25 26 26 26 27 26 26 26 26 26 27 27 27 27 27 26 27 26 27 26 25 26 26 25 26 26 26 26 26 27 28
24 24 24 24 24 25 24 24 24 25 25 25 26 26 27 27 26 26 26 27 27 26 26 27 28 28 27 26 26 27 26 26 26 26 26 25 25 26 26 26 25 26 27
25 25 25 25 25 25 25 25 25 25 25 26 26 27 27 27 26 26 26 26 27 27 26 27 27 27 27 27 27 27 27 27 27 27 27 27 27 27 27 27 26 26 26
26 26 26 26 26 26 26 25 25 25 26 26 27 27 27 26 26 26 26 26 27 27 27 27 27 27 27 28 28 28 28 28 28 28 28 27 28 28 27 26 27 27 27
Wind_Direction
42 24 5 346 334 332 333 338 320 306 314 301 300 307 303 312 309 294 286 285 288 292 288 285 282 276 277 277 278 277 272 270 269 267 269 265 262 258 258 255 252 250 247
35 23 9 4 356 352 355 347 339 320 318 312 309 305 303 302 306 303 300 293 290 293 293 290 284 279 276 275 280 279 275 271 271 270 268 267 262 260 258 256 252 251 247
27 15 10 3 356 348 352 352 343 323 315 311 305 303 302 297 297 298 300 303 297 294 294 291 288 283 277 275 278 280 278 275 273 273 272 270 264 261 259 258 254 251 247
14 14 5 355 349 346 342 334 333 319 305 308 307 306 303 297 294 296 298 299 299 298 294 294 291 288 283 278 279 283 283 284 285 281 277 274 267 263 258 256 253 250 247
359 358 350 345 340 338 333 319 321 324 316 307 304 303 302 299 294 293 297 298 302 300 296 295 293 292 290 287 285 286 289 288 286 281 278 273 269 266 259 255 253 251 248
340 343 342 338 335 335 332 324 319 319 315 307 303 300 298 300 295 292 292 296 298 298 297 295 298 297 294 293 290 290 291 290 285 281 280 275 272 271 265 257 254 254 250
330 329 333 335 334 329 322 321 322 317 315 307 302 300 301 300 296 291 286 288 292 296 297 295 295 301 299 295 294 295 293 291 287 283 285 284 280 276 269 259 256 255 252
326 322 323 326 321 317 319 317 315 315 314 313 308 301 298 295 293 288 286 288 291 292 294 295 296 299 300 296 297 297 293 291 289 287 289 287 281 278 270 263 260 257 253
329 328 326 327 324 321 316 312 310 310 311 309 306 302 299 294 289 287 284 286 287 289 291 292 294 297 297 296 296 295 292 292 289 288 289 286 283 279 272 268 265 261 258
331 326 324 321 320 315 312 310 311 310 308 306 304 300 299 295 292 289 286 285 286 289 290 291 291 292 295 298 295 294 292 289 291 290 289 286 285 281 278 273 268 266 260
324 323 320 319 319 318 315 311 312 310 310 307 303 302 301 298 297 294 290 289 288 289 290 291 291 291 291 295 294 291 291 289 287 288 288 287 286 282 281 278 275 269 262
314 315 317 317 316 317 315 313 312 309 306 305 303 304 304 301 299 299 298 294 292 291 292 292 293 292 292 293 293 291 291 291 288 287 287 286 288 286 281 279 276 272 265
311 310 314 315 313 313 311 311 312 309 308 304 301 300 299 301 302 299 298 297 296 293 291 291 292 290 292 292 292 292 291 292 290 289 288 287 285 287 282 277 275 271 267
313 309 311 314 312 312 311 309 309 308 306 305 301 299 299 300 300 298 297 297 297 294 290 290 290 287 288 290 292 292 292 291 288 287 286 285 283 284 282 279 276 270 267
310 309 309 310 310 310 310 306 306 305 304 305 301 299 298 299 298 297 297 297 297 296 293 291 289 289 289 288 289 289 290 289 288 286 284 284 283 284 282 278 275 271 266
308 307 306 306 307 307 305 303 303 302 303 301 299 298 297 296 297 298 298 297 295 294 294 291 288 288 288 287 286 288 288 287 287 285 283 283 282 280 280 277 274 271 267
302 304 302 303 304 303 302 301 300 301 301 299 297 295 295 295 296 296 297 296 295 296 295 291 288 286 286 286 285 286 287 286 285 284 283 283 280 279 280 278 274 268 264
298 301 299 299 300 301 301 299 299 297 298 297 295 293 293 294 295 295 295 294 293 293 293 291 289 286 285 285 285 286 286 286 284 284 284 283 283 279 278 276 275 270 266
296 299 299 299 301 303 303 300 298 297 296 294 292 292 292 293 295 295 293 293 293 292 292 290 287 286 285 285 284 285 286 285 284 283 283 282 281 278 277 275 274 273 268
297 299 301 301 301 301 300 298 297 296 295 294 292 292 292 292 293 294 293 293 292 291 290 289 287 285 285 285 283 284 284 282 284 283 281 280 279 278 276 274 273 272 269
297 297 298 300 299 299 298 297 296 295 294 293 293 291 292 292 292 293 293 292 291 289 288 287 286 285 284 284 283 283 282 281 282 281 280 279 278 277 275 273 271 270 267
297 297 299 300 300 299 298 297 296 295 293 293 293 293 292 292 292 291 291 290 290 289 288 287 287 286 284 284 283 282 281 281 281 280 280 279 279 278 277 275 272 269 266
295 296 298 299 300 301 300 299 298 297 296 295 296 297 296 293 291 290 290 289 289 288 286 286 286 287 285 284 282 282 282 283 282 282 281 279 278 278 277 278 275 272 266
294 295 297 299 301 302 302 301 300 299 298 298 298 299 297 296 291 289 289 288 288 287 286 286 285 285 284 283 282 282 281 282 283 284 281 280 278 277 277 276 275 273 268
293 294 295 297 299 300 300 300 301 300 299 300 300 299 299 297 292 291 290 289 289 287 286 286 285 284 283 283 283 283 282 282 283 284 283 281 279 277 277 276 275 273 270
290 293 294 295 296 298 299 299 301 301 300 301 301 300 300 298 295 293 293 291 290 288 286 287 286 286 284 284 284 282 281 282 282 282 283 282 280 278 276 275 274 272 270
Height
5893 5892 5892 5891 5891 5890 5889 5889 5888 5888 5888 5887 5887 5887 5886 5886 5885 5885 5884 5884 5884 5884 5883 5882 5881 5881 5881 5880 5880 5880 5880 5879 5880 5879 5879 5879 5879 5879 5879 5879 5880 5880 5881
5894 5893 5892 5892 5891 5890 5889 5889 5888 5888 5888 5887 5887 5886 5886 5886 5885 5884 5884 5883 5883 5882 5881 5880 5880 5879 5879 5878 5878 5878 5877 5877 5877 5877 5876 5876 5876 5876 5876 5876 5877 5877 5878
5894 5893 5893 5892 5891 5890 5889 5889 5888 5888 5887 5887 5887 5886 5886 5885 5885 5884 5883 5882 5881 5880 5879 5879 5878 5877 5877 5876 5876 5875 5875 5874 5874 5873 5873 5873 5872 5872 5872 5873 5873 5874 5875
5894 5893 5892 5892 5891 5890 5889 5888 5888 5887 5887 5886 5886 5885 5885 5884 5883 5883 5882 5881 5880 5879 5878 5877 5876 5875 5874 5874 5873 5873 5872 5871 5871 5870 5870 5869 5869 5869 5869 5869 5870 5870 5871
5894 5893 5893 5891 5890 5890 5889 5888 5887 5886 5886 5885 5885 5884 5883 5882 5882 5881 5880 5880 5878 5877 5876 5875 5875 5874 5873 5872 5871 5870 5869 5868 5868 5867 5866 5866 5865 5865 5865 5866 5866 5867 5867
5894 5893 5892 5891 5890 5889 5888 5887 5886 5885 5884 5884 5883 5882 5882 5881 5880 5879 5879 5878 5877 5875 5874 5873 5873 5872 5871 5870 5869 5868 5866 5865 5865 5864 5863 5862 5862 5862 5862 5863 5863 5863 5864
5893 5892 5891 5890 5890 5889 5887 5886 5885 5884 5883 5882 5882 5881 5880 5879 5878 5877 5876 5876 5875 5873 5872 5871 5871 5870 5869 5867 5866 5865 5864 5863 5862 5861 5860 5859 5859 5859 5859 5859 5859 5859 5860
5893 5892 5891 5890 5888 5887 5887 5886 5884 5883 5882 5881 5880 5879 5878 5878 5876 5875 5874 5873 5872 5871 5870 5869 5868 5867 5866 5865 5864 5862 5861 5860 5859 5858 5856 5856 5856 5856 5855 5855 5855 5855 5855
5892 5891 5890 5889 5887 5886 5886 5884 5883 5882 5881 5879 5878 5877 5876 5876 5874 5873 5872 5870 5870 5869 5868 5867 5865 5864 5863 5862 5861 5860 5858 5857 5856 5855 5854 5853 5853 5852 5852 5852 5851 5851 5851
5891 5890 5889 5888 5887 5885 5884 5883 5881 5880 5879 5877 5876 5874 5874 5872 5871 5870 5869 5867 5866 5866 5865 5864 5863 5861 5860 5859 5858 5856 5855 5854 5853 5852 5851 5850 5849 5849 5848 5848 5848 5847 5847
5890 5889 5888 5886 5885 5884 5882 5881 5879 5878 5876 5875 5873 5872 5871 5869 5868 5867 5865 5864 5863 5863 5862 5860 5859 5858 5857 5855 5854 5853 5852 5851 5850 5849 5848 5847 5846 5845 5844 5844 5843 5843 5843
5888 5887 5886 5885 5883 5882 5880 5879 5877 5875 5874 5872 5871 5870 5868 5867 5865 5864 5863 5861 5860 5859 5858 5856 5855 5854 5853 5852 5851 5850 5849 5848 5846 5845 5844 5843 5842 5841 5840 5840 5839 5839 5839
5887 5885 5884 5883 5881 5880 5878 5876 5874 5873 5871 5869 5868 5866 5865 5864 5863 5861 5860 5858 5857 5855 5854 5853 5852 5850 5849 5848 5847 5846 5845 5844 5843 5842 5840 5839 5838 5837 5836 5835 5835 5835 5835
5884 5883 5882 5880 5879 5877 5875 5873 5872 5870 5868 5866 5865 5863 5862 5861 5859 5858 5857 5855 5853 5852 5850 5849 5848 5846 5845 5844 5843 5842 5840 5839 5838 5837 5836 5835 5834 5833 5832 5831 5830 5830 5830
5882 5880 5879 5878 5876 5874 5872 5870 5868 5867 5865 5863 5861 5860 5859 5857 5856 5854 5852 5851 5850 5848 5847 5845 5843 5842 5841 5840 5838 5837 5836 5835 5834 5833 5831 5830 5829 5828 5827 5826 5826 5826 5826
5879 5878 5876 5875 5873 5871 5869 5867 5865 5863 5861 5860 5858 5856 5855 5853 5852 5850 5848 5846 5845 5843 5842 5840 5838 5837 5836 5835 5833 5832 5831 5830 5828 5827 5826 5825 5824 5823 5822 5821 5821 5820 5821
5876 5874 5873 5871 5869 5867 5865 5863 5861 5859 5857 5856 5854 5852 5851 5849 5847 5845 5843 5841 5839 5838 5836 5835 5833 5832 5830 5829 5828 5826 5825 5824 5823 5821 5820 5819 5818 5817 5816 5815 5815 5815 5815
5872 5870 5868 5867 5865 5862 5860 5858 5856 5854 5853 5851 5849 5847 5846 5844 5842 5840 5838 5836 5834 5832 5830 5829 5827 5826 5824 5823 5821 5820 5818 5817 5816 5815 5814 5813 5812 5811 5811 5810 5809 5809 5809
5868 5866 5864 5862 5860 5858 5856 5854 5852 5850 5848 5846 5844 5842 5840 5838 5836 5834 5832 5830 5828 5826 5824 5822 5821 5819 5817 5816 5815 5813 5812 5810 5809 5808 5807 5806 5806 5805 5804 5803 5803 5803 5803
5863 5861 5859 5857 5855 5853 5851 5849 5847 5844 5842 5840 5838 5836 5834 5832 5830 5828 5825 5823 5821 5819 5817 5815 5814 5812 5810 5809 5807 5806 5805 5803 5802 5801 5800 5799 5798 5798 5797 5797 5796 5796 5796
5858 5856 5854 5852 5849 5847 5845 5843 5841 5839 5836 5834 5832 5830 5828 5825 5823 5821 5819 5816 5814 5812 5810 5808 5806 5805 5803 5802 5800 5798 5797 5796 5795 5793 5793 5792 5791 5790 5790 5789 5788 5788 5788
5852 5850 5848 5846 5844 5841 5839 5836 5834 5832 5830 5827 5825 5823 5820 5818 5816 5814 5812 5809 5807 5804 5803 5801 5799 5798 5796 5794 5792 5791 5789 5788 5787 5787 5785 5784 5783 5782 5782 5781 5781 5780 5780
5847 5845 5842 5840 5837 5835 5832 5830 5827 5825 5823 5820 5818 5815 5813 5811 5809 5806 5804 5802 5799 5797 5795 5794 5792 5790 5788 5787 5785 5783 5782 5780 5779 5778 5777 5776 5775 5774 5773 5773 5772 5772 5772
5841 5839 5837 5834 5831 5829 5826 5823 5821 5818 5816 5813 5810 5808 5805 5802 5800 5798 5795 5793 5791 5789 5787 5785 5784 5782 5780 5778 5777 5776 5774 5773 5772 5770 5769 5768 5767 5766 5765 5765 5764 5764 5764
5834 5832 5830 5827 5825 5822 5819 5817 5814 5812 5809 5806 5803 5800 5797 5795 5792 5790 5787 5785 5783 5780 5778 5776 5775 5774 5772 5770 5769 5768 5766 5765 5764 5763 5761 5760 5759 5758 5757 5757 5756 5756 5755
5827 5825 5823 5820 5818 5815 5813 5810 5807 5805 5802 5799 5796 5793 5790 5787 5784 5782 5779 5777 5775 5773 5771 5769 5767 5766 5764 5762 5761 5759 5758 5756 5755 5754 5753 5752 5751 5750 5749 5749 5748 5747 5747